Terminal Aerodrome Forecast
Issued by NWS Amarillo, TX

Home | Current Version | Previous Version | Text Only | Print | Product List | Glossary On
Versions: 1 2 3 4 5 6 7 8 9 10 11 12 13 14 15 16 17
820
FTUS44 KAMA 181120
TAFDHT
TAF
KDHT 181120Z 1812/1912 24008KT P6SM SKC
      TEMPO 1819/1823 21013G23KT=

USA.gov is the U.S. government's official web portal to all federal, state and local government web resources and services.